Location: Mahannah Oil Field
(37.4664°N, 96.6003°W)
Time: 02:02:12
(UTC+00:00)

Tiros 1 despin weight - Pass Details

Date: 01 February 2021
Orbit: 593 x 642 km, 48.2° (Epoch: 25 February)

Event Time Altitude Azimuth Distance (km) Brightness Sun altitude
Rises 22:11:12 0° 306° (NW) 2,888 ? 16.5°
Reaches altitude 10° 22:13:41 10° 315° (NW) 1,972 ? 16.1°
Maximum altitude 22:17:52 36° 22° (NNE) 964 ? 15.4°
Drops below altitude 10° 22:22:00 10° 90° (E) 1,939 ? 14.7°
Sets 22:24:25 0° 99° (E) 2,834 ? 14.3°
